Regional Weather Roundup
Issued by NWS Burlington, VT

Home | Current Version | Previous Version | Text Only | Print | Product List | Glossary On
Versions: 1 2 3 4 5 6 7 8 9 10 11 12 13 14 15 16 17 18 19 20 21 22 23 24 25 26 27 28 29 30 31 32 33 34 35 36 37 38 39 40 41 42 43 44 45 46 47 48 49 50
000
ASUS41 KBTV 191810
RWRBTV
VERMONT REGIONAL WEATHER ROUNDUP
NATIONAL WEATHER SERVICE BURLINGTON VT
100 PM EST SUN NOV 19 2017

NOTE: "FAIR" INDICATES FEW OR NO CLOUDS BELOW 12,000 FEET WITH NO
SIGNIFICANT WEATHER AND/OR OBSTRUCTIONS TO VISIBILITY.

* THESE REPORTS ARE NOT UNDER NWS QUALITY CONTROL AND/OR DO NOT
  REPORT WEATHER SUCH AS PRECIPITATION AND FOG.

VTZ001>019-191900-
_____VERMONT_____


CITY           SKY/WX    TMP DP  RH WIND       PRES   REMARKS
BURLINGTON     FLURRIES  35  24  64 W16G25    29.37R WCI  25
6HR MIN TEMP:  35; 6HR MAX TEMP:  49; 6HR PCP:  0.18;

MONTPELIER     CLOUDY    33  29  85 W8G24     29.32R WCI  26
6HR MIN TEMP:  33; 6HR MAX TEMP:  48; 6HR PCP:  0.10;

LYNDONVILLE*   CLOUDY    32  27  83 SW14G25   29.25R WCI  22
6HR MIN TEMP:  32; 6HR MAX TEMP:  46;

MIDDLEBURY*    CLOUDY    34  28  79 NW8       29.36R WCI  27
6HR MIN TEMP:  34; 6HR MAX TEMP:  49; 6HR PCP:  0.08;

RUTLAND*       LGT RAIN  37  25  61 W17G35    29.34R WCI  27
6HR MIN TEMP:  37; 6HR MAX TEMP:  56; 6HR PCP:  0.01;

SPRINGFIELD    CLOUDY    41  30  65 W21G31    29.30R WCI  32
6HR MIN TEMP:  40; 6HR MAX TEMP:  51; 6HR PCP:  0.03;

HIGHGATE*      CLOUDY    31  25  78 W10G22    29.36R WCI  22
6HR MIN TEMP:  31; 6HR MAX TEMP:  44;

NEWPORT*       LGT SNOW  31  27  86 W10G17    29.27R WCI  22
6HR MIN TEMP:  31; 6HR MAX TEMP:  43;

BENNINGTON     CLOUDY    37  28  70 W18G26    29.39R WCI  27
6HR MIN TEMP:  37; 6HR MAX TEMP:  57; 6HR PCP:  0.04;

SUTTON*          N/A     30 N/A N/A MISG        N/A

_____LAKE CHAMPLAIN_____


CITY           SKY/WX    TMP DP  RH WIND       PRES   REMARKS
BURTON ISLAND*   N/A     34  28  80 NW25G31     N/A  WCI  21
COLCHESTER RF*   N/A     36  27  69 W29G35      N/A  WCI  23
DIAMOND ISL*     N/A     36  25  64 W14G20      N/A  WCI  27

$$

NYZ007-026>031-035-052-083-087-191900-
_____NORTHERN NEW YORK_____


CITY           SKY/WX    TMP DP  RH WIND       PRES   REMARKS
PLATTSBURGH    CLOUDY    33  22  63 W9        29.37R WCI  25
6HR MIN TEMP:  33; 6HR MAX TEMP:  44; 6HR PCP:  0.08;

SARANAC LAKE   LGT SNOW  25  22  88 W12G29    29.37R FOG     WCI  14
6HR MIN TEMP:  25; 6HR MAX TEMP:  42; 6HR PCP:  0.10;

MASSENA        CLOUDY    30  26  85 W18G28    29.46R WCI  18
6HR MIN TEMP:  30; 6HR MAX TEMP:  33; 6HR PCP:  0.04;

OGDENSBURG*    CLOUDY    33  27  79 W16G23    29.49R WCI  22
6HR MIN TEMP:  30; 6HR MAX TEMP:  33;

POTSDAM*       CLOUDY    30  28  93 W13G20    29.48R WCI  20
WATERTOWN      CLOUDY    32  27  81 NW8       29.55R WCI  25
6HR MIN TEMP:  30; 6HR MAX TEMP:  33; 6HR PCP:  0.03;

FT DRUM        MIX PCPN  30  25  80 W8        29.51R WCI  23
6HR MIN TEMP:  29; 6HR MAX TEMP:  32; 6HR PCP: TRACE;

ALBANY         PTSUNNY   40  25  55 W26G40    29.46R WCI  29
6HR MIN TEMP:  39; 6HR MAX TEMP:  52; 6HR PCP:  0.05;

GLENS FALLS    CLOUDY    40  26  57 W18       29.41R WCI  31
6HR MIN TEMP:  38; 6HR MAX TEMP:  50; 6HR PCP:  0.02;


$$
NHZ002-005-011-191900-
_____NEW HAMPSHIRE_____


CITY           SKY/WX    TMP DP  RH WIND       PRES   REMARKS
LEBANON        CLOUDY    42  31  64 W9G24     29.27R
6HR MIN TEMP:  41; 6HR MAX TEMP:  54; 6HR PCP:  0.07;

KEENE          CLOUDY    42  31  64 NW8G28    29.32R
6HR MIN TEMP:  42; 6HR MAX TEMP:  56; 6HR PCP:  0.05;

MT WASHINGTON  SNOWSHWR  18  18 100 W63G70      N/A  VSB 0   WCI  -8
6HR MIN TEMP:  17; 6HR MAX TEMP:  35; 6HR PCP:  0.63;

PLYMOUTH       PTSUNNY   41  33  74 W17G31    29.20R WCI  32
6HR MIN TEMP:  33; 6HR MAX TEMP:  46; 6HR PCP:  0.09;

WHITEFIELD     CLOUDY    36  31  82 W10       29.22R WCI  28
6HR MIN TEMP:  36; 6HR MAX TEMP:  51; 6HR PCP:  0.13;


$$

_____REGIONAL QUEBEC LOCATIONS_____


CITY           SKY/WX    TMP DP  RH WIND       PRES   REMARKS
MONTREAL       CLOUDY    30  25  80 W23G31    29.33R WCI  17
QUEBEC CITY    LGT SNOW  34  32  93 SW13      29.06R FOG     WCI  25
SHERBROOKE     LGT SNOW  32  30  93 W18G32    29.19R WCI  20

_____REGIONAL ONTARIO LOCATIONS_____


CITY           SKY/WX    TMP DP  RH WIND       PRES   REMARKS
OTTAWA         PTSUNNY   30  23  74 NW24G32   29.43R WCI  16

______KEY______
VSB  - VISIBILITY IN MILES
WCI  - WIND CHILL INDEX
HX   - HEAT INDEX
$$
NNNN




USA.gov is the U.S. government's official web portal to all federal, state and local government web resources and services.